Weather History for Copper Mountain, CO

Change the Weather History Date:

Thursday, November 8, 2012

  Actual Average (KLXV) Record (KLXV)
Temperature  
Mean Temperature 40 °F -  
Max Temperature 46 °F 40 °F 59 °F (1980)
Min Temperature 33 °F 15 °F 2 °F (1993)
Degree Days  
Heating Degree Days 26 37  
Month to date heating degree days 287  
Since 1 July heating degree days 2476  
Cooling Degree Days 0 0  
Month to date cooling degree days 0  
Year to date cooling degree days 0  
Moisture  
Dew Point 5 °F    
Average Humidity 26    
Maximum Humidity 41    
Minimum Humidity 13    
Precipitation  
Precipitation 0.00 in 0.03 in 0.39 in (2001)
Month to date precipitation 0.23  
Year to date precipitation 11.17  
Sea Level Pressure  
Sea Level Pressure 30.19 in    
Wind  
Wind Speed 14 mph (SSW)    
Max Wind Speed 26 mph    
Max Gust Speed 32 mph    
Visibility 9 miles    
Events      
T = Trace of Precipitation, MM = Missing Value Source: NWS Daily Summary

Daily Weather History Graph

Daily Weather History Graph

Search for Another Location

Airport:

Trip Planner

Search our weather history database for the weather conditions in past years. The results will help you decide how hot, cold, wet, or windy it might be!

Date:

Astronomy

Nov. 08, 2012 Rise Set
Actual Time 6:41 AM MST 4:55 PM MST
Civil Twilight 6:12 AM MST 5:23 PM MST
Nautical Twilight 5:40 AM MST 5:55 PM MST
Astronomical Twilight 5:09 AM MST 6:27 PM MST
Moon 12:40 AM MST (11/8) 1:36 PM MST (11/8)
Length of Visible Light 11h 10m
Length of Day
10h 13m
Waning Crescent, 32% of the Moon is Illuminated
Nov 8
Waning Crescent
Nov 13
New
Nov 20
First Quarter
Nov 28
Full
Dec 6
Last Quarter

Hourly Weather History & Observations

Time (MST) Temp. Windchill Dew Point Humidity Pressure Visibility Wind Dir Wind Speed Gust Speed Precip Events Conditions
12:16 AM 33.8 °F 25.3 °F 8.6 °F 35% 30.30 in 10.0 mi SSW 11.5 mph 21.9 mph N/A   Clear
12:36 AM 33.8 °F 26.4 °F 8.6 °F 35% 30.29 in 10.0 mi West 9.2 mph - N/A   Clear
12:56 AM 33.8 °F 29.6 °F 10.4 °F 38% 30.29 in 10.0 mi West 4.6 mph - N/A   Clear
1:16 AM 33.8 °F 25.3 °F 8.6 °F 35% 30.29 in 10.0 mi SW 11.5 mph 23.0 mph N/A   Clear
1:36 AM 33.8 °F 23.2 °F 12.2 °F 41% 30.28 in 2.5 mi WSW 17.3 mph 25.3 mph N/A   Haze
1:56 AM 33.8 °F 28.6 °F 10.4 °F 38% 30.28 in 10.0 mi West 5.8 mph - N/A   Clear
2:16 AM 33.8 °F 22.2 °F 12.2 °F 41% 30.27 in 3.0 mi WSW 20.7 mph 26.5 mph N/A   Haze
2:36 AM 33.8 °F 24.3 °F 12.2 °F 41% 30.28 in 4.0 mi WSW 13.8 mph 26.5 mph N/A   Haze
2:56 AM 33.8 °F 24.3 °F 10.4 °F 38% 30.27 in 7.0 mi SW 13.8 mph 21.9 mph N/A   Clear
3:16 AM 33.8 °F 23.2 °F 12.2 °F 41% 30.27 in 7.0 mi WSW 17.3 mph 21.9 mph N/A   Clear
3:36 AM 35.6 °F 25.5 °F 10.4 °F 35% 30.27 in 5.0 mi West 17.3 mph 25.3 mph N/A   Haze
3:56 AM 33.8 °F 23.9 °F 10.4 °F 38% 30.27 in 5.0 mi SSW 15.0 mph 23.0 mph N/A   Haze
4:16 AM 33.8 °F 27.7 °F 10.4 °F 38% 30.27 in 7.0 mi SW 6.9 mph 21.9 mph N/A   Clear
4:36 AM 35.6 °F 29.9 °F 10.4 °F 35% 30.27 in 10.0 mi SW 6.9 mph - N/A   Clear
4:56 AM 33.8 °F 24.3 °F 8.6 °F 35% 30.27 in 10.0 mi South 13.8 mph 17.3 mph N/A   Clear
5:16 AM 33.8 °F 23.5 °F 10.4 °F 38% 30.28 in 10.0 mi South 16.1 mph - N/A   Clear
5:36 AM 33.8 °F 22.2 °F 10.4 °F 38% 30.27 in 10.0 mi South 20.7 mph - N/A   Clear
5:56 AM 35.6 °F 27.5 °F 12.2 °F 38% 30.27 in 10.0 mi SSW 11.5 mph 20.7 mph N/A   Clear
6:16 AM 33.8 °F 24.8 °F 12.2 °F 41% 30.27 in 10.0 mi South 12.7 mph 16.1 mph N/A   Clear
6:36 AM 35.6 °F 28.0 °F 12.2 °F 38% 30.27 in 10.0 mi SSW 10.4 mph 16.1 mph N/A   Clear
6:56 AM 33.8 °F 24.3 °F 12.2 °F 41% 30.27 in 10.0 mi South 13.8 mph - N/A   Clear
7:16 AM 35.6 °F 27.1 °F 12.2 °F 38% 30.27 in 10.0 mi South 12.7 mph 16.1 mph N/A   Clear
7:36 AM 35.6 °F 29.2 °F 12.2 °F 38% 30.27 in 10.0 mi SSW 8.1 mph - N/A   Clear
7:56 AM 37.4 °F 30.8 °F 14.0 °F 38% 30.27 in 10.0 mi South 9.2 mph - N/A   Clear
8:16 AM 37.4 °F 30.3 °F 14.0 °F 38% 30.27 in 10.0 mi South 10.4 mph - N/A   Clear
8:36 AM 41.0 °F 33.1 °F 10.4 °F 29% 30.26 in 10.0 mi SSE 15.0 mph 18.4 mph N/A   Clear
8:56 AM 41.0 °F 33.5 °F 12.2 °F 31% 30.25 in 10.0 mi SSE 13.8 mph 20.7 mph N/A   Clear
9:16 AM 41.0 °F 33.9 °F 10.4 °F 29% 30.25 in 10.0 mi SSE 12.7 mph 19.6 mph N/A   Clear
9:36 AM 41.0 °F 32.2 °F 8.6 °F 26% 30.25 in 10.0 mi South 18.4 mph - N/A   Clear
9:56 AM 44.6 °F 38.1 °F 8.6 °F 23% 30.23 in 10.0 mi SSE 13.8 mph 18.4 mph N/A   Clear
10:16 AM 44.6 °F 37.2 °F 6.8 °F 21% 30.22 in 10.0 mi SSE 17.3 mph 20.7 mph N/A   Clear
10:36 AM 44.6 °F 36.4 °F 5.0 °F 20% 30.22 in 10.0 mi SSE 20.7 mph 28.8 mph N/A   Clear
10:56 AM 42.8 °F 35.1 °F 5.0 °F 21% 30.22 in 10.0 mi South 16.1 mph 21.9 mph N/A   Clear
11:16 AM 42.8 °F 36.6 °F 5.0 °F 21% 30.21 in 10.0 mi SSE 11.5 mph 21.9 mph N/A   Clear
11:56 AM 44.6 °F 37.4 °F 5.0 °F 20% 30.18 in 10.0 mi SSE 16.1 mph 20.7 mph N/A   Clear
12:16 PM 44.6 °F 36.9 °F 3.2 °F 18% 30.17 in 10.0 mi SSE 18.4 mph 21.9 mph N/A   Clear
12:36 PM 44.6 °F 36.6 °F 3.2 °F 18% 30.15 in 10.0 mi SSE 19.6 mph 26.5 mph N/A   Clear
12:56 PM 46.4 °F 41.1 °F 3.2 °F 17% 30.15 in 10.0 mi SE 11.5 mph 26.5 mph N/A   Clear
1:16 PM 46.4 °F 39.8 °F 3.2 °F 17% 30.15 in 10.0 mi SSE 16.1 mph 23.0 mph N/A   Clear
1:36 PM 46.4 °F 38.7 °F 1.4 °F 16% 30.14 in 10.0 mi SSE 20.7 mph 29.9 mph N/A   Clear
1:56 PM 46.4 °F 38.7 °F 1.4 °F 16% 30.13 in 10.0 mi SE 20.7 mph 29.9 mph N/A   Clear
2:16 PM 46.4 °F 38.7 °F 1.4 °F 16% 30.15 in 10.0 mi SSE 20.7 mph 28.8 mph N/A   Clear
2:36 PM 44.6 °F 37.2 °F -0.4 °F 15% 30.14 in 10.0 mi South 17.3 mph 24.2 mph N/A   Clear
2:56 PM 44.6 °F 37.8 °F -2.2 °F 14% 30.15 in 10.0 mi SSW 15.0 mph 32.2 mph N/A   Clear
3:16 PM 44.6 °F 36.4 °F -2.2 °F 14% 30.15 in 10.0 mi SW 20.7 mph 29.9 mph N/A   Clear
3:36 PM 44.6 °F 36.9 °F -4.0 °F 13% 30.15 in 10.0 mi SSW 18.4 mph 28.8 mph N/A   Clear
3:56 PM 44.6 °F 37.4 °F -0.4 °F 15% 30.15 in 10.0 mi SW 16.1 mph 24.2 mph N/A   Clear
4:16 PM 42.8 °F 35.1 °F -0.4 °F 16% 30.15 in 10.0 mi WSW 16.1 mph 20.7 mph N/A   Clear
4:36 PM 41.0 °F 33.5 °F -5.8 °F 14% 30.14 in 10.0 mi WSW 13.8 mph 25.3 mph N/A   Clear
4:56 PM 41.0 °F 33.5 °F -5.8 °F 14% 30.14 in 10.0 mi SW 13.8 mph 19.6 mph N/A   Clear
5:16 PM 41.0 °F 33.1 °F -4.0 °F 15% 30.14 in 10.0 mi SW 15.0 mph 20.7 mph N/A   Clear
5:36 PM 41.0 °F 32.8 °F -4.0 °F 15% 30.15 in 10.0 mi SW 16.1 mph 23.0 mph N/A   Clear
5:56 PM 41.0 °F 33.1 °F -4.0 °F 15% 30.14 in 10.0 mi SSW 15.0 mph 25.3 mph N/A   Clear
6:16 PM 39.2 °F 31.6 °F -4.0 °F 16% 30.14 in 10.0 mi SSW 12.7 mph 18.4 mph N/A   Clear
6:36 PM 39.2 °F 31.6 °F -4.0 °F 16% 30.14 in 10.0 mi South 12.7 mph 19.6 mph N/A   Clear
6:56 PM 39.2 °F 30.2 °F -2.2 °F 17% 30.13 in 10.0 mi South 17.3 mph 29.9 mph N/A   Clear
7:16 PM 37.4 °F 27.8 °F -4.0 °F 17% 30.12 in 10.0 mi South 17.3 mph 27.6 mph N/A   Clear
7:36 PM 37.4 °F 28.9 °F -2.2 °F 19% 30.12 in 10.0 mi SW 13.8 mph 24.2 mph N/A   Clear
7:56 PM 37.4 °F 27.2 °F -0.4 °F 20% 30.11 in 10.0 mi South 19.6 mph 25.3 mph N/A   Clear
8:16 PM 37.4 °F 27.5 °F 1.4 °F 22% 30.10 in 10.0 mi South 18.4 mph - N/A   Clear
8:36 PM 37.4 °F 27.8 °F 1.4 °F 22% 30.10 in 10.0 mi South 17.3 mph 20.7 mph N/A   Clear
8:56 PM 37.4 °F 27.2 °F -0.4 °F 20% 30.09 in 10.0 mi South 19.6 mph 31.1 mph N/A   Clear
9:16 PM 37.4 °F 26.4 °F 1.4 °F 22% 30.08 in 10.0 mi South 23.0 mph 29.9 mph N/A   Clear
9:36 PM 37.4 °F 25.9 °F 1.4 °F 22% 30.08 in 10.0 mi South 25.3 mph 32.2 mph N/A   Clear
9:56 PM 37.4 °F 26.1 °F 3.2 °F 24% 30.08 in 10.0 mi South 24.2 mph 31.1 mph N/A   Clear
10:16 PM 37.4 °F 26.1 °F 3.2 °F 24% 30.08 in 10.0 mi South 24.2 mph 29.9 mph N/A   Clear
10:36 PM 35.6 °F 23.2 °F 3.2 °F 26% 30.07 in 10.0 mi South 26.5 mph 32.2 mph N/A   Clear
10:56 PM 35.6 °F 23.7 °F 3.2 °F 26% 30.07 in 10.0 mi South 24.2 mph 32.2 mph N/A   Clear
11:16 PM 35.6 °F 25.2 °F 5.0 °F 28% 30.06 in 10.0 mi South 18.4 mph - N/A   Clear
11:36 PM 35.6 °F 24.8 °F 5.0 °F 28% 30.05 in 10.0 mi South 19.6 mph 32.2 mph N/A   Clear
11:56 PM 33.8 °F 21.0 °F 6.8 °F 32% 30.06 in 10.0 mi South 25.3 mph 28.8 mph N/A   Clear